Flag for U.S.A. Weather past 2 weeks in Wichita, Kansas, U.S.A.

Now
61 °F

Passing clouds.


Feels Like: 61 °F
Forecast: 37 / 55 °F
Wind: 18 mph from Northwest

Location: Wichita Mid-Continent Airport

Current Time: Jan 28, 2015 at 11:04:03 PM

Latest Report: Jan 28, 2015 at 9:53 PM


Visibility: 10 mi

Pressure: 29.93 "Hg

Humidity: 34%

Dew point: 32 °F

Location of WichitaLocation

Historic Weather in Wichita — Graph

°F

Wichita temperature yesterday

Maximum temperature yesterday: 72 °F (at 3:53 PM)
Minimum temperature yesterday: 32 °F (at 5:53 AM)
Average temperature yesterday: 52 °F

Past Weeks' High & Low Weather Summary

 TemperatureHumidityPressure
High74 °F (Jan 26, 3:53 PM)97% (Jan 20, 9:53 AM)30.51 "Hg (Jan 20, 9:53 AM)
Low17 °F (Jan 15, 6:53 AM)18% (Jan 19, 3:53 PM)29.77 "Hg (Jan 28, 1:53 PM)
Average43 °F56%30.11 "Hg
* Reported Jan 13 9:53 PM — Jan 28 9:53 PM, Wichita, Weather by CustomWeather, © 2014

Note: Actual official high and low records may vary slightly from our data, if they occured in-between our weather recording intervals... More about our weather records

Advertising

Wichita weather history for previous 24 hours

 ConditionsComfort  
Time TempWeatherWind HumidityBarometerVisibility
9:53 PM
Jan 28
61 °FPassing clouds.18 mph34%29.93 "Hg10 mi
8:53 PM55 °FPartly cloudy.10 mph44%29.90 "Hg10 mi
7:53 PM56 °FOvercast.9 mph44%29.88 "Hg10 mi
6:53 PM56 °FPartly cloudy.8 mph46%29.85 "Hg10 mi
5:53 PM62 °FPartly cloudy.5 mph35%29.83 "Hg10 mi
4:53 PM68 °FScattered clouds.9 mph28%29.80 "Hg10 mi
3:53 PM71 °FScattered clouds.13 mph25%29.79 "Hg10 mi
2:53 PM70 °FPartly sunny.16 mph30%29.78 "Hg10 mi
1:53 PM70 °FPartly sunny.17 mph31%29.77 "Hg10 mi
12:53 PM68 °FMostly cloudy.21 mph32%29.81 "Hg10 mi
11:53 AM68 °FPartly sunny.20 mph33%29.83 "Hg10 mi
10:53 AM64 °FBroken clouds.21 mph38%29.83 "Hg10 mi
9:53 AM57 °FScattered clouds.15 mph49%29.87 "Hg10 mi
8:53 AM49 °FScattered clouds.15 mph66%29.89 "Hg10 mi
7:53 AM42 °FPartly sunny.10 mph76%29.90 "Hg10 mi
6:53 AM40 °FPassing clouds.9 mph80%29.90 "Hg10 mi
5:53 AM39 °FClear.8 mph76%29.90 "Hg10 mi
4:53 AM40 °FClear.6 mph77%29.90 "Hg10 mi
3:53 AM43 °FClear.6 mph71%29.92 "Hg10 mi
2:53 AM44 °FPassing clouds.5 mph68%29.94 "Hg10 mi
1:53 AM43 °FPassing clouds.6 mph68%29.94 "Hg10 mi
12:53 AM46 °FPassing clouds.6 mph63%29.96 "Hg10 mi
11:53 PM
Jan 27
46 °FPassing clouds.8 mph63%29.97 "Hg10 mi
Weather by CustomWeather, © 2014

See weather overviewHow to use our weather pages